Flag for Germany Weather past 2 weeks in Hildesheim, Lower Saxony, Germany

Now
79 °F

Sunny.


Feels Like: 79 °F
Forecast: 56 / 82 °F
Wind: 2 mph from North

Location: Braunschweig

Current Time: Jun 30, 2015 at 7:10:00 PM

Latest Report: Jun 30, 2015 at 6:20 PM


Visibility: 10 mi

Pressure: 30.15 "Hg

Humidity: 32%

Dew point: 46 °F

Location of HildesheimLocation

Historic Weather in Hildesheim — Graph

°F

Hildesheim temperature yesterday

Maximum temperature yesterday: 81 °F (at 2:20 PM)
Minimum temperature yesterday: 59 °F (at 6:20 AM)
Average temperature yesterday: 73 °F

Past Weeks' High & Low Weather Summary

 TemperatureHumidityPressure
High81 °F (Jun 29, 2:20 PM)100% (Jun 17, 6:50 AM)30.27 "Hg (Jun 17, 6:50 AM)
Low45 °F (Jun 17, 6:50 AM)30% (Jun 15, 5:20 PM)29.68 "Hg (Jun 22, 6:50 PM)
Average62 °F66%30.05 "Hg
* Reported Jun 15 5:20 PM — Jun 30 5:50 PM, Hildesheim, Weather by CustomWeather, © 2015

Note: Actual official high and low records may vary slightly from our data, if they occured in-between our weather recording intervals... More about our weather records

Advertising

Hildesheim weather history for previous 24 hours

 ConditionsComfort  
Time TempWeatherWind HumidityBarometerVisibility
5:50 PM
Tue, Jun 30
79 °FPassing clouds.5 mph32%30.15 "HgN/A
4:50 PM79 °FPassing clouds.8 mph32%30.18 "HgN/A
4:20 PM79 °FSunny.6 mph32%30.18 "Hg10 mi
3:50 PM79 °FSunny.5 mph34%30.18 "Hg10 mi
2:50 PM75 °FSunny.6 mph39%30.18 "Hg10 mi
2:20 PM75 °FPassing clouds.7 mph39%30.18 "HgN/A
1:50 PM75 °FSunny.3 mph39%30.18 "Hg10 mi
1:20 PM73 °FMild.3 mph38%30.21 "HgN/A
12:50 PM73 °FSunny.5 mph38%30.21 "Hg10 mi
12:20 PM73 °FSunny.5 mph38%30.21 "Hg10 mi
11:50 AM72 °FSunny.5 mph44%30.21 "Hg10 mi
11:20 AM72 °FSunny.6 mph44%30.21 "Hg10 mi
10:50 AM70 °FSunny.3 mph46%30.21 "Hg10 mi
10:20 AM70 °FSunny.6 mph46%30.21 "Hg10 mi
9:50 AM68 °FSunny.6 mph53%30.21 "Hg10 mi
9:20 AM68 °FSunny.5 mph53%30.21 "Hg10 mi
8:50 AM64 °FSunny.3 mph68%30.21 "Hg10 mi
8:20 AM63 °FSunny.5 mph73%30.21 "Hg10 mi
7:50 AM61 °FSunny.3 mph83%30.21 "Hg10 mi
7:20 AM59 °FSunny.3 mph88%30.21 "Hg10 mi
6:50 AM57 °FScattered clouds.1 mph100%30.21 "HgN/A
1:50 AM63 °FClear.No wind68%30.18 "Hg10 mi
1:20 AM63 °FClear.No wind68%30.18 "Hg10 mi
12:50 AM61 °FClear.5 mph83%30.18 "Hg10 mi
10:20 PM
Mon, Jun 29
68 °FSunny.5 mph64%30.15 "Hg10 mi
9:20 PM70 °FSunny.7 mph60%30.12 "Hg10 mi
8:50 PM73 °FSunny.6 mph50%30.12 "Hg10 mi
8:20 PM75 °FPassing clouds.7 mph47%30.12 "HgN/A
7:50 PM75 °FPassing clouds.6 mph44%30.12 "HgN/A
7:20 PM75 °FPassing clouds.8 mph44%30.12 "HgN/A
Weather by CustomWeather, © 2015

See weather overviewHow to use our weather pages